Home   Weather   Bitterfeld-Wolfen   Past weeks

Flag for Germany Past Weather in Bitterfeld-Wolfen, Saxony-Anhalt, Germany — Yesterday and Last 2 Weeks

Now
36 °F

Sunny.


Feels Like: 27 °F
Forecast: 36 / 45 °F
Wind: 13 mph from Southwest

Location: Leipzig-Schkeuditz

Current Time: Dec 7, 2016 at 3:47:28 pm

Latest Report: Dec 7, 2016 at 3:20 pm


Visibility: 10 mi

Pressure: 30.45 "Hg

Humidity: 75%

Dew Point: 28 °F

Location of Bitterfeld-WolfenLocation

Past Weather in Bitterfeld-Wolfen — Graph

°F

Bitterfeld-Wolfen Temperature Yesterday

Maximum temperature yesterday: 34 °F (at 1:50 pm)
Minimum temperature yesterday: 21 °F (at 1:50 am)
Average temperature yesterday: 27 °F

High & Low Weather Summary for the Past Weeks

 TemperatureHumidityPressure
High55 °F (Nov 22, 2:20 pm)100% (Nov 23, 1:20 am)30.57 "Hg (Nov 23, 1:20 am)
Low19 °F (Dec 5, 2:50 am)60% (Nov 30, 11:50 am)29.89 "Hg (Dec 2, 12:50 am)
Average34 °F89%30.25 "Hg
* Reported Nov 22 2:20 pm — Dec 7 2:20 pm, Bitterfeld-Wolfen, Weather by CustomWeather, © 2016

Note: Actual official high and low records may vary slightly from our data, if they occured in-between our weather recording intervals... More about our weather records

Advertising

Bitterfeld-Wolfen Weather History for the Previous 24 Hours

Scroll right to see more
 ConditionsComfort  
Time TempWeatherWind HumidityBarometerVisibility
2:20 pm
Wed, Dec 7
34 °FSunny.15 mph81%30.45 "Hg10 mi
1:50 pm34 °FSunny.15 mph75%30.45 "Hg10 mi
1:20 pm32 °FSunny.14 mph75%30.45 "Hg10 mi
12:50 pm32 °FSunny.15 mph75%30.45 "Hg10 mi
12:20 pm32 °FSunny.16 mph75%30.45 "Hg10 mi
11:50 am30 °FBroken clouds.14 mph75%30.48 "HgN/A
11:20 am28 °FSunny.12 mph80%30.48 "Hg10 mi
10:50 am27 °FBroken clouds.10 mph80%30.51 "HgN/A
10:20 am27 °FSunny.9 mph80%30.51 "Hg10 mi
9:50 am25 °FSunny.8 mph86%30.51 "Hg10 mi
9:20 am23 °FSunny.7 mph93%30.51 "Hg10 mi
8:50 am23 °FSunny.7 mph86%30.51 "Hg10 mi
8:20 am23 °FSunny.9 mph86%30.51 "Hg10 mi
7:50 am21 °FClear.7 mph93%30.51 "Hg10 mi
7:20 am21 °FClear.7 mph93%30.51 "Hg10 mi
6:50 am21 °FClear.7 mph93%30.51 "Hg10 mi
6:20 am21 °FClear.6 mph93%30.51 "Hg10 mi
5:50 am23 °FClear.7 mph93%30.51 "Hg10 mi
5:20 am25 °FPassing clouds.8 mph93%30.51 "HgN/A
4:50 am25 °FClear.8 mph93%30.54 "Hg10 mi
4:20 am27 °FClear.7 mph86%30.54 "Hg10 mi
3:50 am25 °FClear.9 mph93%30.54 "Hg10 mi
3:20 am23 °FClear.8 mph93%30.54 "Hg10 mi
2:50 am25 °FClear.7 mph86%30.54 "Hg10 mi
2:20 am25 °FPassing clouds.8 mph93%30.54 "HgN/A
1:50 am27 °FPassing clouds.6 mph93%30.54 "HgN/A
1:20 am25 °FPassing clouds.5 mph93%30.54 "HgN/A
12:50 am25 °FPassing clouds.8 mph93%30.54 "HgN/A
12:20 am27 °FClear.8 mph86%30.54 "Hg10 mi
11:50 pm
Tue, Dec 6
27 °FClear.6 mph86%30.54 "Hg10 mi
11:20 pm28 °FPassing clouds.6 mph86%30.54 "HgN/A
10:50 pm27 °FPassing clouds.8 mph93%30.54 "HgN/A
10:20 pm27 °FPassing clouds.8 mph93%30.54 "HgN/A
9:50 pm28 °FPassing clouds.6 mph93%30.54 "Hg6 mi
9:20 pm28 °FLight freezing rain. Passing clouds.7 mph93%30.54 "Hg6 mi
8:50 pm30 °FSnow flurries. Partly cloudy.6 mph86%30.54 "Hg6 mi
8:20 pm30 °FLight snow. Passing clouds.7 mph86%30.54 "HgN/A
7:50 pm30 °FPassing clouds.6 mph86%30.51 "HgN/A
6:50 pm32 °FPassing clouds.7 mph80%30.51 "HgN/A
6:20 pm32 °FPassing clouds.7 mph87%30.51 "HgN/A
5:50 pm32 °FPartly cloudy.7 mph87%30.51 "HgN/A
5:20 pm32 °FPassing clouds.7 mph80%30.51 "HgN/A
4:50 pm32 °FPassing clouds.7 mph87%30.48 "HgN/A
4:20 pm32 °FPassing clouds.8 mph87%30.48 "HgN/A
3:50 pm32 °FPartly sunny.8 mph87%30.48 "HgN/A
3:20 pm34 °FPartly sunny.8 mph81%30.48 "HgN/A
Weather by CustomWeather, © 2016

See weather overviewHow to use our weather pages